Location: Sungai Jaoh
(2.9167°N, 113.9167°E)
Time: 16:29:11
(UTC+00:00)

ATLAS 5 CENTAUR R/B - Pass Details

Date: 30 November 2020
Orbit: 520 x 1138 km, 63.4° (Epoch: 22 January)

Event Time Altitude Azimuth Distance (km) Brightness Sun altitude
Rises 21:07:02 0° 209° (SSW) 2,782 4.8 -16.5°
Reaches altitude 10° 21:09:21 10° 212° (SSW) 1,827 3.9 -15.9°
Maximum altitude 21:13:19 61° 293° (WNW) 598 1.2 -15.0°
Drops below altitude 10° 21:17:06 10° 14° (NNE) 1,742 3.8 -14.1°
Sets 21:19:16 0° 18° (NNE) 2,639 4.8 -13.6°
